[Iaude] MPEC J108: 2024 JA3 [a=1.17,e=0.25,i=8.1,H=24.9]
    mpec at cfa.harvard.edu 
    mpec at cfa.harvard.edu
       
    Tue May  7 07:37:49 EDT 2024
    
    
  
M.P.E.C. 2024-J108                                  Issued 2024 May 7, 11:36 UT
     The Minor Planet Electronic Circulars contain information on unusual
         minor planets, routine data on comets and natural satellites,
         and occasional editorial announcements.  They are published
    on behalf of Division F of the International Astronomical Union by the
          Minor Planet Center, Smithsonian Astrophysical Observatory,
                          Cambridge, MA 02138, U.S.A.
			  
             Prepared using the Tamkin Foundation Computer Network
                              MPC at CFA.HARVARD.EDU
            URL https://www.minorplanetcenter.net/    ISSN 1523-6714
                                    2024 JA3                                    
Observations:
     K24J03A* C2024 05 03.49719016 30 01.336+00 37 26.15         21.76wXEJ108F51
     K24J03A  C2024 05 03.50981616 30 01.633+00 37 20.30         21.43wXEJ108F51
     K24J03A  C2024 05 03.52245716 30 01.944+00 37 14.40         22.11wXEJ108F51
     K24J03A  C2024 05 03.53506116 30 02.240+00 37 08.35         22.20wXEJ108F51
     K24J03A KC2024 05 04.35324216 30 43.584+00 30 05.74         21.7 GVEJ108I52
     K24J03A KC2024 05 04.36288216 30 43.817+00 29 59.64         21.9 GVEJ108I52
     K24J03A KC2024 05 06.40630 16 32 24.00 +00 08 46.2          21.6 RVEJ108691
     K24J03A KC2024 05 06.42327 16 32 24.38 +00 08 33.8          21.6 RVEJ108691
     K24J03A KC2024 05 06.44024 16 32 24.86 +00 08 21.9          21.2 RVEJ108691
     K24J03A KC2024 05 07.44716316 33 15.600-00 04 41.20               VEJ108I52
     K24J03A KC2024 05 07.46600116 33 16.180-00 04 56.10         21.84GVEJ108I52
     K24J03A KC2024 05 07.47230816 33 16.350-00 05 01.70         22.27GVEJ108I52
Observer details:
691 Steward Observatory, Kitt Peak-Spacewatch.  Observer M. T. Read.  0.9-m
    f/3 reflector + CCD.
F51 Pan-STARRS 1, Haleakala.  Observers J. Herman, T. Lowe, P. Minguez, A.
    Schultz, I. Smith.  Measurers K. Chambers, T. de Boer, J. Fairlamb, H.
    Gao, M. Huber, C.-C. Lin, E. Magnier, Y. Ramanjooloo, R. Wainscoat, R.
    Weryk.  1.8-m Ritchey-Chretien + CCD.
I52 Steward Observatory, Mt. Lemmon Station.  Observers D. Rankin, H.
    Groeller.  Measurers D. Rankin, D. Parrott, T. Beuden, V. F. Carvajal, D.
    Fay, J. B. Fazekas, D. C. Fuls, A. R. Gibbs, A. D. Grauer, H. Groeller, J.
    K. Hogan, R. A. Kowalski, S. M. Larson, G. J. Leonard, R. L. Seaman, F. C.
    Shelly, K. W. Wierzchos.  1.00-m f/2.0 prime focus + CCD + CCD, 1.0-m
    prime focus + CCD.
Orbital elements:
2024 JA3                                                 Earth MOID = 0.0140 AU
Epoch 2024 Mar. 31.0 TT = JDT 2460400.5                 MPC                     
M 265.97925              (2000.0)            P               Q                  
n   0.77936606     Peri.  257.35786     +0.77980112     +0.61289526             
a   1.1694322      Node    64.69934     -0.50554926     +0.73669030             
e   0.2487649      Incl.    8.11067     -0.36922914     +0.28573904             
P   1.26           H   24.98          G   0.15           U   9                  
Residuals in seconds of arc
240503 F51  0.0   0.1-    240504 I52  0.1+  0.4+    240506 691  0.4+  0.3+
240503 F51  0.1-  0.0     240504 I52  0.2-  0.5-    240507 I52  0.4-  0.4-
240503 F51  0.1+  0.0     240506 691  0.7+  0.1+    240507 I52  0.3+  0.4+
240503 F51  0.0   0.1-    240506 691  0.1-  0.1-    240507 I52  0.1+  0.0
Ephemeris:
2024 JA3                 a,e,i = 1.17, 0.25, 8                   q = 0.8785
Date    TT    R. A. (2000) Decl.     Delta      r    Elong.  Phase     V
2024 04 07    16 04 53.8 +00 37 53   0.3038  1.2323   134.2    35.6    24.3
...
2024 04 22    16 20 18.9 +01 11 56   0.2057  1.1751   142.6    31.3    23.2
...
2024 04 30    16 27 10.0 +00 58 34   0.1583  1.1432   146.9    28.7    22.5
...
2024 05 06    16 32 04.4 +00 14 08   0.1248  1.1189   150.3    26.5    21.9
2024 05 07    16 32 54.7 +00 02 00   0.1193  1.1148   150.9    26.1    21.8
2024 05 08    16 33 46.1 -00 11 57   0.1139  1.1108   151.5    25.7    21.7
...
2024 05 14    16 39 47.5 -02 31 09   0.08254 1.0862   155.4    22.8    20.8
...
2024 05 22    16 56 42.5 -11 50 23   0.04329 1.0537   163.1    16.2    19.2
...
2024 06 06    03 41 53.9 -31 37 32   0.03727 0.9950    57.2   121.0    22.7
A. U. Tomatic                (C) Copyright 2024 MPC           M.P.E.C. 2024-J108
    
    
More information about the Iaude
mailing list